This is the latest recevied weather packets stored in our database for station/object KI4FRU. If no packets are shown the sender has not sent any weather packets the latest 10 day(s).
| Time | Temp. | Humidity | Pressure | Rain* | Wind** | Luminosity | Snow |
|---|---|---|---|---|---|---|---|
| 1777945370 | 18.89° C | 59% | 1053.4 hPa | 0 mm | - | 0 W/m² | - |
| 1777945066 | 18.89° C | 57% | 1053.2 hPa | 0 mm | - | 0 W/m² | - |
| 1777944762 | 18.89° C | 60% | 1053.2 hPa | 0 mm | - | 0 W/m² | - |
| 1777944461 | 18.33° C | 61% | 1053.4 hPa | 0 mm | - | 0 W/m² | - |
| 1777944158 | 18.33° C | 63% | 1053.2 hPa | 0 mm | - | 0 W/m² | - |
| 1777943853 | 18.33° C | 63% | 1053.2 hPa | 0 mm | - | 0 W/m² | - |
| 1777943551 | 17.78° C | 64% | 1053.4 hPa | 0 mm | - | 0 W/m² | - |
| 1777943246 | 17.78° C | 64% | 1053.2 hPa | 0 mm | - | 0 W/m² | - |
| 1777942943 | 17.78° C | 63% | 1053.1 hPa | 0 mm | - | 0 W/m² | - |
| 1777942639 | 18.33° C | 64% | 1053 hPa | 0 mm | - | 0 W/m² | - |
| 1777942336 | 18.33° C | 65% | 1053.2 hPa | 0 mm | - | 0 W/m² | - |
| 1777942033 | 18.89° C | 62% | 1053.1 hPa | 0 mm | - | 0 W/m² | - |
| 1777941730 | 19.44° C | 62% | 1053 hPa | 0 mm | - | 0 W/m² | - |
| 1777941427 | 20° C | 57% | 1053.1 hPa | 0 mm | - | 0 W/m² | - |
| 1777941125 | 20° C | 56% | 1052.9 hPa | 0 mm | - | 0 W/m² | - |
| 1777940821 | 20.56° C | 55% | 1052.9 hPa | 0 mm | - | 0 W/m² | - |
| 1777940519 | 20.56° C | 55% | 1052.6 hPa | 0 mm | - | 1 W/m² | - |
| 1777940216 | 21.11° C | 53% | 1052.7 hPa | 0 mm | - | 2 W/m² | - |
| 1777939913 | 21.67° C | 53% | 1053 hPa | 0 mm | - | 3 W/m² | - |
| 1777939610 | 21.67° C | 52% | 1052.6 hPa | 0 mm | - | 4 W/m² | - |
| 1777939308 | 22.22° C | 51% | 1052.7 hPa | 0 mm | - | 7 W/m² | - |
| 1777939004 | 22.22° C | 51% | 1052.7 hPa | 0 mm | - | 8 W/m² | - |
| 1777938700 | 22.22° C | 51% | 1052.5 hPa | 0 mm | - | 9 W/m² | - |
| 1777938398 | 22.78° C | 51% | 1052.6 hPa | 0 mm | - | 12 W/m² | - |
| 1777938095 | 22.78° C | 50% | 1052.5 hPa | 0 mm | - | 13 W/m² | - |
* Rain latest hour (hover to see other rain measurements)
** Current wind speed in m/s (hover to see current wind gust speed)